INMARSAT 6-F1

Last updated on Fri Oct 04 2024 00:02:42 GMT+0000 (Coordinated Universal Time)

1 50319U 21128A 24277.05503194 -.00000168 00000+0 00000+0 0 9995 2 50319 0.0201 217.3326 0000228 225.3922 33.0786 1.00267214 10027
UTC large
Height (km)
Speed (km/s)
/
Latitude / Longitude
Inclination (degrees)
Orbital Period (minutes)
Azimuth
Elevation
Range (km)
Doppler Factor

Next 0 passes for location: London (51.5072 / 0.1276)

Sorry there are no passes over London.